Norwood, MA

6:50 PM EDT on October 16, 2017 (GMT -0400)
Norwood Memorial

Weather History for KOWD - September, 2013

Change the Weather History Date:

Sunday, September 29, 2013

  Actual Average Record
Temperature  
Mean Temperature 54 °F -  
Max Temperature 68 °F 66 °F 84 °F (2015)
Min Temperature 42 °F 42 °F 27 °F (2000)
Degree Days  
Heating Degree Days 11    
Growing Degree Days 4 (Base 50)    
Moisture  
Dew Point 46 °F    
Average Humidity 87    
Maximum Humidity 100    
Minimum Humidity 46    
Precipitation  
Precipitation 0.01 in - - ()
Sea Level Pressure  
Sea Level Pressure 30.19 in    
Wind  
Wind Speed 1 mph (NE)    
Max Wind Speed 9 mph    
Max Gust Speed -    
Visibility 5 miles    
Events Fog    
Averages and records for this station are not official NWS values.
T = Trace of Precipitation, MM = Missing Value Source: NWS Daily Summary

Daily Weather History Graph

Daily Weather History Graph

Search for Another Location

Airport or City:

Trip Planner

Search our weather history database for the weather conditions in past years. The results will help you decide how hot, cold, wet, or windy it might be!

Date:

Astronomy

Sep. 29, 2013 Rise Set
Actual Time 6:39 AM EDT 6:29 PM EDT
Civil Twilight 6:11 AM EDT 6:57 PM EDT
Nautical Twilight 5:39 AM EDT 7:29 PM EDT
Astronomical Twilight 5:06 AM EDT 8:02 PM EDT
Moon 1:13 AM EDT (9/29) 3:28 PM EDT (9/29)
Length of Visible Light 12h 45m
Length of Day
11h 49m
Waning Crescent, 27% of the Moon is Illuminated
Sep 29
Waning Crescent
Oct 4
New
Oct 11
First Quarter
Oct 18
Full
Oct 26
Last Quarter

Hourly Weather History & Observations

Time (EDT) Temp. Dew Point Humidity Pressure Visibility Wind Dir Wind Speed Gust Speed Precip Events Conditions
12:07 AM 44.6 °F 42.8 °F 93% 30.27 in 1.5 mi Calm Calm - N/A   Overcast
12:15 AM 42.8 °F 42.8 °F 100% 30.27 in 0.5 mi Calm Calm - N/A Fog Fog
12:44 AM 44.6 °F 42.8 °F 93% 30.26 in 2.0 mi Calm Calm - N/A   Overcast
12:51 AM 44.6 °F 44.6 °F 100% 30.26 in 10.0 mi Calm Calm - N/A   Overcast
12:53 AM 46.0 °F 44.1 °F 93% 30.26 in 10.0 mi Calm Calm - N/A   Overcast
1:11 AM 46.4 °F 44.6 °F 93% 30.26 in 1.2 mi Calm Calm - N/A   Overcast
1:18 AM 44.6 °F 44.6 °F 100% 30.26 in 0.2 mi Calm Calm - N/A Fog Fog
1:53 AM 45.0 °F 44.1 °F 97% 30.26 in 0.2 mi Calm Calm - N/A Fog Fog
2:53 AM 46.0 °F 45.0 °F 96% 30.24 in 0.2 mi Calm Calm - N/A Fog Fog
3:53 AM 46.9 °F 46.0 °F 97% 30.23 in 0.2 mi Calm Calm - N/A Fog Fog
4:53 AM 46.9 °F 46.0 °F 97% 30.22 in 0.2 mi Calm Calm - N/A Fog Fog
5:53 AM 46.0 °F 45.0 °F 96% 30.23 in 0.2 mi Calm Calm - N/A Fog Fog
6:53 AM 46.0 °F 45.0 °F 96% 30.23 in 0.2 mi Calm Calm - N/A Fog Fog
7:53 AM 48.9 °F 48.9 °F 100% 30.23 in 0.2 mi Calm Calm - 0.01 in Fog Fog
8:53 AM 52.0 °F 52.0 °F 100% 30.24 in 0.2 mi Calm Calm - N/A Fog Fog
9:35 AM 53.6 °F 53.6 °F 100% 30.24 in 2.0 mi Calm Calm - N/A   Overcast
9:43 AM 53.6 °F 53.6 °F 100% 30.24 in 6.0 mi Calm Calm - N/A   Overcast
9:53 AM 55.0 °F 53.1 °F 93% 30.24 in 10.0 mi Calm Calm - N/A   Overcast
10:01 AM 55.4 °F 53.6 °F 94% 30.24 in 10.0 mi Calm Calm - N/A   Overcast
10:40 AM 60.8 °F 53.6 °F 77% 30.23 in 10.0 mi Variable 3.5 mph - N/A   Scattered Clouds
10:53 AM 61.0 °F 52.0 °F 72% 30.22 in 10.0 mi Variable 4.6 mph - N/A   Partly Cloudy
11:53 AM 64.9 °F 48.0 °F 54% 30.19 in 10.0 mi Variable 5.8 mph - N/A   Scattered Clouds
12:53 PM 66.0 °F 48.9 °F 54% 30.19 in 10.0 mi Variable 6.9 mph - N/A   Clear
1:53 PM 66.9 °F 48.0 °F 51% 30.17 in 10.0 mi NNE 9.2 mph - N/A   Clear
2:53 PM 66.0 °F 46.9 °F 50% 30.15 in 10.0 mi NE 8.1 mph - N/A   Clear
3:53 PM 64.9 °F 45.0 °F 48% 30.14 in 10.0 mi ENE 5.8 mph - N/A   Clear
4:53 PM 64.0 °F 43.0 °F 46% 30.14 in 10.0 mi East 4.6 mph - N/A   Clear
5:53 PM 61.0 °F 46.0 °F 58% 30.14 in 10.0 mi ENE 3.5 mph - N/A   Clear
6:53 PM 55.0 °F 48.9 °F 80% 30.14 in 10.0 mi Calm Calm - N/A   Clear
7:53 PM 48.0 °F 45.0 °F 89% 30.14 in 8.0 mi Calm Calm - N/A   Clear
8:53 PM 46.9 °F 44.1 °F 90% 30.13 in 9.0 mi Calm Calm - N/A   Clear
9:06 PM 44.6 °F 42.8 °F 93% 30.13 in 1.5 mi Calm Calm - N/A   Clear
9:14 PM 44.6 °F 42.8 °F 93% 30.13 in 9.0 mi Calm Calm - N/A   Clear
9:53 PM 43.0 °F 42.1 °F 97% 30.12 in 9.0 mi Calm Calm - N/A   Clear
9:56 PM 42.8 °F 41.0 °F 93% 30.12 in 0.8 mi Calm Calm - N/A   Mist
10:11 PM 42.8 °F 41.0 °F 93% 30.12 in 0.8 mi Calm Calm - N/A   Mist
10:18 PM 44.6 °F 42.8 °F 93% 30.13 in 1.5 mi Calm Calm - N/A   Mostly Cloudy
10:32 PM 44.6 °F 42.8 °F 93% 30.13 in 3.0 mi Calm Calm - N/A   Mostly Cloudy
10:42 PM 42.8 °F 41.0 °F 93% 30.13 in 1.8 mi Calm Calm - N/A   Mostly Cloudy
10:53 PM 44.1 °F 43.0 °F 96% 30.12 in 1.2 mi Calm Calm - N/A   Mostly Cloudy
10:59 PM 42.8 °F 42.8 °F 100% 30.13 in 0.8 mi Calm Calm - N/A   Mostly Cloudy
11:22 PM 44.6 °F 42.8 °F 93% 30.13 in 2.5 mi Calm Calm - N/A   Overcast
11:29 PM 46.4 °F 44.6 °F 93% 30.13 in 10.0 mi Calm Calm - N/A   Overcast
11:53 PM 48.0 °F 46.0 °F 93% 30.12 in 10.0 mi Calm Calm - N/A   Overcast